Regional Weather Roundup
Issued by NWS Sterling, VA

Home | Current Version | Previous Version | Text Only | Print | Product List | Glossary Off
Versions: 1 2 3 4 5 6 7 8 9 10 11 12 13 14 15 16 17 18 19 20 21 22 23 24 25 26 27 28 29 30 31 32 33 34 35 36 37 38 39 40 41 42 43 44 45 46 47 48 49 50

000
ASUS41 KLWX 241010
RWRLWX

REGIONAL WEATHER ROUNDUP
NATIONAL WEATHER SERVICE BALTIMORE MD/WASHINGTON DC
600 AM EDT WED AUG 24 2016

Note: "FAIR" indicates few or no clouds below 12,000 feet
with no significant weather and/or obstructions to visibility.
 TC=TEMPERATURE CELSIUS

 * =Non NWS site. Station does not report precipitation (e.g. rain,
    snow, etc.), thunder, or fog.

DCZ001-MDZ009-015-VAZ040>042-051-053>054-241100-
WASHINGTON METRO

CITY           SKY/WX    TMP DP  RH WIND       PRES   REMARKS
WASHINGTON NAT PTCLDY    69  62  78 SW3       30.30R
DULLES         PTCLDY    63  59  87 CALM      30.29R
ANDREWS AFB    MOCLDY    64  60  88 SW3       30.29R
FT BELVOIR     CLEAR     61  60  95 CALM      30.30R
QUANTICO       CLEAR     65  62  90 NW6       30.31R
COLLEGE PARK*  CLEAR     59  57  94 CALM      30.30R
LEESBURG*      CLEAR     63  63 100 CALM      30.31R
MANASSAS*      PTCLDY    63  61  94 CALM      30.30R
GAITHERSBURG*  CLEAR     61  55  82 CALM      30.34R

$$

MDZ006>007-011-014-241100-
BALTIMORE METRO

CITY           SKY/WX    TMP DP  RH WIND       PRES   REMARKS
BWI AIRPORT    PTCLDY    61  58  90 CALM      30.29R
MD SCIENCE CTR   N/A     69  57  65 MISG      30.29R
MARTIN STATE   CLEAR     64  63  94 CALM      30.30R
ANNAPOLIS      CLEAR     69  62  78 W3        30.28R
FORT MEADE*    MOCLDY    57  55  94 CALM      30.32R

$$

MDZ012-015-019>023-241100-
MARYLAND EASTERN SHORE

CITY           SKY/WX    TMP DP  RH WIND       PRES   REMARKS
OCEAN CITY     CLEAR     59  56  89 CALM      30.28S
SALISBURY      CLEAR     58  56  93 CALM      30.29R
BAY BRIDGE AP* CLEAR     72  64  78 SW6       30.29R
CAMBRIDGE*     CLEAR     59  59 100 CALM      30.29R
EASTON*        CLEAR     65  64  97 CALM      30.32R

$$

MDZ017>025-241100-
SOUTHERN MARYLAND

CITY           SKY/WX    TMP DP  RH WIND       PRES   REMARKS
PATUXENT RIVER PTCLDY    63  60  90 SW5       30.29R
ST INIGOES     CLEAR     63  62  97 CALM      30.28R
LEONARDTOWN*   CLEAR     61  59  94 CALM      30.31R

$$

MDZ003>005-241100-
NORTH CENTRAL MARYLAND

CITY           SKY/WX    TMP DP  RH WIND       PRES   REMARKS
FREDERICK*     CLEAR     59  59 100 CALM      30.32R FOG
HAGERSTOWN APT CLEAR     67  58  72 CALM      30.28R

$$

MDZ501>502-241100-
WESTERN MARYLAND

CITY           SKY/WX    TMP DP  RH WIND       PRES   REMARKS
OAKLAND*       CLEAR     59  55  88 S7        30.34S
CUMBERLAND*    CLEAR     61  61 100 CALM      30.32S

$$

VAZ025>031-241100-
SHENANDOAH VALLEY

CITY           SKY/WX    TMP DP  RH WIND       PRES   REMARKS
WINCHESTER*    CLEAR     63  61  94 CALM      30.29R
FRONT ROYAL*   FAIR      61  61 100 CALM      30.28S
LURAY*         FOG      N/A N/A N/A CALM      30.31R VSB 1/2
NEW MARKET*    CLOUDY   N/A N/A N/A CALM      30.30R VSB 1/2
STAUNTON*      PTCLDY    57  57  98 CALM      30.34R
WAYNESBORO*    FAIR      60  59  96 CALM      30.33R

$$

WVZ021-048>050-054>055-241100-
EASTERN WEST VIRGINIA PANHANDLE

CITY           SKY/WX    TMP DP  RH WIND       PRES   REMARKS
MARTINSBURG    CLEAR     60  59  96 CALM      30.28R
PETERSBURG*    PTCLDY    57  57  98 CALM      30.30R

$$

VAZ036>039-050-241100-
CENTRAL FOOTHILLS

CITY           SKY/WX    TMP DP  RH WIND       PRES   REMARKS
CHARLOTTESVILL PTCLDY    64  60  87 CALM      30.30R
CULPEPER*      MOCLDY    61  61 100 CALM      30.30S
ORANGE*          N/A     63  63 100 CALM      30.31S
GORDONSVILLE*  NOT AVBL
WARRENTON*     FAIR      62  57  86 CALM      30.30R

$$

VAZ055>057-241100-
NORTH AND CENTRAL PIEDMONT

CITY           SKY/WX    TMP DP  RH WIND       PRES   REMARKS
FREDERICKSBRG* PTCLDY    63  63 100 CALM      30.30R
STAFFORD*      PTCLDY    59  58  97 CALM      30.34R

$$

NCZ024-NYZ072-PAZ021-071-VAZ022-071-241100-
OTHER REGIONAL OBSERVATIONS

CITY           SKY/WX    TMP DP  RH WIND       PRES   REMARKS
NEW YORK CITY    N/A     68  58  70 W3        30.29S
PHILADELPHIA   CLEAR     68  60  75 SW5       30.29S
PITTSBURGH     PTCLDY    61  56  83 CALM      30.24S
ROANOKE        MOCLDY    64  63  96 CALM      30.33R
RICHMOND       PTCLDY    61  58  90 CALM      30.30R
RALEIGH        PTCLDY    65  61  87 CALM      30.29R

$$

ANZ530>537-241100-
MARINE OBSERVATIONS

STATION/POSITION TIME  TEMP    WIND        PRES
                       AIR SEA DIR/SP/G
                 (UTC) (F)     (DEG/KT/KT) (MB)
THOMAS PT LIGHT  1000   72 81  250/  8/  9 1027.0R
BALT KEY BRIDGE  0942   69     260/  5/  6 1025.5R
COVE POINT       0942   72     270/  7/  9 1025.9R
LEWISETTA        0942   69 81  250/  4/  5 1025.2R
SOLOMONS ISLAND  0948          270/  4/  5   N/A
PINEY POINT      0948          260/  4/  5   N/A

$$




USA.gov is the U.S. government's official web portal to all federal, state and local government web resources and services.